User: anonymous   Login
Location: Unspecified
(0.0000°N, 0.0000°E)
Time: 17:15:38
(UTC+02:00)
Language:

Iridium 33 - Orbit

View from above orbital plane
View from above orbital plane
View from above satellite
View from above satellite

Ground track
Ground track

The orbit data is extracted from the following two-line orbital elements,

1 24946U 97051C   16272.70607302  .00000108  00000-0  31998-4 0  9993
2 24946  86.3899  36.1768 0008640  29.5008 330.6673 14.33512262996576
Epoch (UTC): 28 September 2016 16:56:44
Eccentricity: 0.0008640
inclination: 86.3899°
perigee height: 774 km
apogee height: 786 km
right ascension of ascending node: 36.1768°
argument of perigee: 29.5008°
revolutions per day: 14.33512262
mean anomaly at epoch: 330.6673°
orbit number at epoch: 99657

The dashed part of the orbit path shows where the satellite is in the earth's shadow,  

DLR